Location: Newark
(22.3145°N, 88.6625°E)
Time: 16:13:14
(UTC+00:00)

Hubble Space Telescope - Visible Passes

Search period start: 23 October 2019 00:00
Search period end: 02 November 2019 00:00
Orbit: 536 x 540 km, 28.5° (Epoch: 22 October)

Date Brightness Start Highest point End Pass type
(mag) Time Alt. Az. Time Alt. Az. Time Alt. Az.
23 Oct 3.3 23:10:21 10° SSW 23:13:05 17° SSE 23:15:49 10° ESE visible
24 Oct 2.9 22:59:11 10° SSW 23:02:27 23° SSE 23:05:44 10° E visible
25 Oct 2.4 22:49:02 15° SSW 22:51:51 30° SSE 22:55:28 10° E visible
26 Oct 1.8 22:39:40 27° SSW 22:41:14 39° SSE 22:45:06 10° E visible
27 Oct 1.2 22:30:11 49° S 22:30:38 52° SSE 22:34:38 10° E visible
28 Oct 1.2 22:20:37 59° ESE 22:20:37 59° ESE 22:24:09 10° ENE visible
29 Oct 2.0 22:10:57 39° ENE 22:10:57 39° ENE 22:13:37 10° ENE visible
29 Oct 1.5 23:46:58 10° WNW 23:50:51 39° N 23:54:44 10° ENE visible
30 Oct 2.8 22:01:13 25° ENE 22:01:13 25° ENE 22:03:02 10° ENE visible
30 Oct 1.7 23:36:34 10° WNW 23:40:22 36° N 23:44:11 10° ENE visible
31 Oct 3.4 21:51:24 17° ENE 21:51:24 17° ENE 21:52:28 10° ENE visible
31 Oct 1.7 23:26:45 14° WNW 23:29:53 34° N 23:33:40 10° ENE visible
01 Nov 3.8 21:41:34 12° ENE 21:41:34 12° ENE 21:41:53 10° ENE visible
01 Nov 1.8 23:16:54 18° NW 23:19:24 33° N 23:23:10 10° ENE visible
